Weather History for KTAZ - February, 2013

Change the Weather History Date:

Thursday, February 7, 2013

  Actual Average (KSPI) Record (KSPI)
Temperature  
Mean Temperature 37 °F 29 °F  
Max Temperature 42 °F 37 °F 67 °F (2009)
Min Temperature 32 °F 20 °F -13 °F (2014)
Degree Days  
Heating Degree Days 28 36  
Month to date heating degree days 257  
Since 1 July heating degree days 3583  
Cooling Degree Days 0 0  
Month to date cooling degree days 0  
Year to date cooling degree days 0  
Moisture  
Dew Point 34 °F    
Average Humidity 87    
Maximum Humidity 100    
Minimum Humidity 70    
Precipitation  
Precipitation 0.19 in 0.06 in 1.13 in (1999)
Month to date precipitation 0.39  
Year to date precipitation 2.21  
Snow  
Snow 0.00 in 0.20 in 1.60 in (1933)
Month to date snowfall 1.5  
Since 1 July snowfall 14.1  
Snow Depth -    
Sea Level Pressure  
Sea Level Pressure 29.95 in    
Wind  
Wind Speed 9 mph (SSW)    
Max Wind Speed 20 mph    
Max Gust Speed 24 mph    
Visibility 6 miles    
Events Rain    
T = Trace of Precipitation, MM = Missing Value Source: NWS Daily Summary

Daily Weather History Graph

Daily Weather History Graph

Search for Another Location

Airport or City:

Trip Planner

Search our weather history database for the weather conditions in past years. The results will help you decide how hot, cold, wet, or windy it might be!

Date:

Astronomy

Feb. 07, 2013 Rise Set
Actual Time 6:58 AM CST 5:24 PM CST
Civil Twilight 6:30 AM CST 5:52 PM CST
Nautical Twilight 5:58 AM CST 6:24 PM CST
Astronomical Twilight 5:27 AM CST 6:56 PM CST
Moon 4:37 AM CST (2/7) 2:49 PM CST (2/7)
Length of Visible Light 11h 22m
Length of Day
10h 26m
Waning Crescent, 9% of the Moon is Illuminated
Feb 7
Waning Crescent
Feb 10
New
Feb 17
First Quarter
Feb 25
Full
Mar 4
Last Quarter

Hourly Weather History & Observations

Time (CST) Temp. Windchill Dew Point Humidity Pressure Visibility Wind Dir Wind Speed Gust Speed Precip Events Conditions
12:15 AM 33.8 °F 25.8 °F 28.4 °F 81% 30.08 in 10.0 mi SE 10.4 mph - N/A   Clear
12:35 AM 33.8 °F 26.4 °F 28.4 °F 81% 30.08 in 10.0 mi SE 9.2 mph - N/A   Clear
12:55 AM 32.0 °F 24.2 °F 28.4 °F 87% 30.07 in 7.0 mi SE 9.2 mph - N/A   Clear
1:15 AM 33.8 °F 26.4 °F 28.4 °F 81% 30.06 in 7.0 mi SE 9.2 mph - N/A   Clear
1:35 AM 33.8 °F 24.8 °F 28.4 °F 81% 30.04 in 7.0 mi SE 12.7 mph - N/A   Clear
1:55 AM 33.8 °F 25.3 °F 28.4 °F 81% 30.04 in 7.0 mi SE 11.5 mph - N/A   Clear
2:15 AM 33.8 °F 24.3 °F 28.4 °F 81% 30.03 in 7.0 mi SE 13.8 mph - N/A   Clear
2:35 AM 33.8 °F 23.5 °F 28.4 °F 81% 30.02 in 7.0 mi SSE 16.1 mph 23.0 mph N/A   Clear
2:55 AM 33.8 °F 25.3 °F 28.4 °F 81% 30.01 in 7.0 mi SE 11.5 mph 20.7 mph N/A   Clear
3:15 AM 33.8 °F 25.3 °F 28.4 °F 81% 30.01 in 7.0 mi SSE 11.5 mph - N/A   Clear
3:35 AM 33.8 °F 24.8 °F 28.4 °F 81% 30.01 in 7.0 mi SSE 12.7 mph - N/A   Clear
3:55 AM 33.8 °F 25.8 °F 28.4 °F 81% 30.02 in 7.0 mi SSE 10.4 mph - N/A   Scattered Clouds
4:15 AM 33.8 °F 26.4 °F 28.4 °F 81% 30.01 in 7.0 mi SSE 9.2 mph - N/A   Scattered Clouds
4:35 AM 33.8 °F 26.4 °F 28.4 °F 81% 30.01 in 7.0 mi SSE 9.2 mph - N/A   Clear
4:55 AM 33.8 °F 25.8 °F 28.4 °F 81% 30.00 in 7.0 mi SE 10.4 mph - N/A   Clear
5:15 AM 33.8 °F 26.4 °F 28.4 °F 81% 30.00 in 7.0 mi SE 9.2 mph - N/A   Clear
5:35 AM 33.8 °F 25.8 °F 28.4 °F 81% 29.99 in 7.0 mi SE 10.4 mph - N/A   Clear
5:55 AM 33.8 °F 27.7 °F 28.4 °F 81% 29.99 in 7.0 mi SE 6.9 mph - N/A   Clear
6:15 AM 32.0 °F - 28.4 °F 87% 30.01 in 7.0 mi Calm Calm - N/A   Clear
6:35 AM 32.0 °F - 28.4 °F 87% 30.01 in 7.0 mi Calm Calm - N/A   Mostly Cloudy
6:55 AM 32.0 °F 27.5 °F 28.4 °F 87% 29.99 in 5.0 mi SE 4.6 mph - N/A   Overcast
7:15 AM 33.8 °F 27.7 °F 30.2 °F 87% 29.99 in 5.0 mi SE 6.9 mph - N/A   Overcast
7:35 AM 33.8 °F 26.4 °F 30.2 °F 87% 29.98 in 5.0 mi SE 9.2 mph - N/A   Overcast
7:55 AM 35.6 °F 28.6 °F 30.2 °F 81% 29.98 in 5.0 mi SE 9.2 mph - N/A   Haze
8:15 AM 35.6 °F 28.0 °F 30.2 °F 81% 29.98 in 7.0 mi SE 10.4 mph - N/A   Overcast
8:35 AM 37.4 °F 30.3 °F 30.2 °F 75% 29.98 in 7.0 mi SSE 10.4 mph - N/A   Overcast
8:55 AM 37.4 °F 30.3 °F 30.2 °F 75% 29.98 in 7.0 mi SSE 10.4 mph - N/A   Mostly Cloudy
9:15 AM 37.4 °F 30.3 °F 30.2 °F 75% 29.96 in 7.0 mi SE 10.4 mph - N/A   Mostly Cloudy
9:35 AM 41.0 °F 35.2 °F 32.0 °F 70% 29.96 in 7.0 mi SSE 9.2 mph - N/A   Mostly Cloudy
9:55 AM 41.0 °F 38.0 °F 32.0 °F 70% 29.97 in 7.0 mi SSW 4.6 mph - N/A   Overcast
10:15 AM 41.0 °F - 32.0 °F 70% 29.96 in 7.0 mi Calm Calm - N/A   Overcast
10:35 AM 41.0 °F - 33.8 °F 76% 29.95 in 7.0 mi Calm Calm - N/A   Overcast
10:55 AM 42.8 °F - 33.8 °F 70% 29.95 in 7.0 mi Calm Calm - N/A   Overcast
11:15 AM 42.8 °F 41.1 °F 33.8 °F 70% 29.94 in 10.0 mi South 3.5 mph - N/A   Overcast
11:35 AM 42.8 °F 41.1 °F 33.8 °F 70% 29.94 in 7.0 mi SW 3.5 mph - N/A   Overcast
11:55 AM 42.8 °F 41.1 °F 33.8 °F 70% 29.92 in 10.0 mi South 3.5 mph - N/A   Overcast
12:15 PM 42.8 °F 38.6 °F 33.8 °F 70% 29.91 in 7.0 mi SSE 6.9 mph - N/A   Overcast
12:35 PM 42.8 °F 39.3 °F 35.6 °F 76% 29.89 in 5.0 mi SSE 5.8 mph - N/A   Drizzle
12:55 PM 41.0 °F 36.4 °F 37.4 °F 87% 29.88 in 4.0 mi SSE 6.9 mph - 0.01 in Rain Light Rain
1:15 PM 42.8 °F 39.3 °F 39.2 °F 87% 29.87 in 5.0 mi South 5.8 mph - 0.01 in   Overcast
1:35 PM 42.8 °F 41.1 °F 39.2 °F 87% 29.87 in 4.0 mi South 3.5 mph - 0.01 in Rain Light Rain
1:55 PM 42.8 °F 40.1 °F 39.2 °F 87% 29.86 in 4.0 mi SSE 4.6 mph - 0.01 in   Light Drizzle
2:15 PM 42.8 °F 39.3 °F 41.0 °F 93% 29.85 in 7.0 mi South 5.8 mph - 0.03 in   Overcast
2:35 PM 42.8 °F 38.6 °F 41.0 °F 93% 29.86 in 4.0 mi WSW 6.9 mph - 0.04 in Rain Light Rain
2:55 PM 42.8 °F 41.1 °F 42.8 °F 100% 29.86 in 3.0 mi West 3.5 mph - 0.01 in Rain Light Rain
3:15 PM 42.8 °F 38.0 °F 41.0 °F 93% 29.86 in 4.0 mi WSW 8.1 mph - 0.01 in   Light Drizzle
3:35 PM 42.8 °F 39.3 °F 41.0 °F 93% 29.84 in 3.0 mi WSW 5.8 mph - 0.03 in Rain Light Rain
3:55 PM 42.8 °F 38.0 °F 41.0 °F 93% 29.86 in 2.5 mi SW 8.1 mph - N/A Rain Light Rain
4:15 PM 41.0 °F 37.1 °F 41.0 °F 100% 29.86 in 2.5 mi SSW 5.8 mph - 0.02 in Rain Light Rain
4:35 PM 41.0 °F 38.0 °F 41.0 °F 100% 29.85 in 2.5 mi SW 4.6 mph - 0.04 in Rain Light Rain
4:55 PM 41.0 °F 39.0 °F 41.0 °F 100% 29.86 in 1.8 mi SSW 3.5 mph - 0.02 in Rain Rain
5:15 PM 41.0 °F 38.0 °F 41.0 °F 100% 29.87 in 2.5 mi WSW 4.6 mph - N/A Rain Heavy Rain
5:35 PM 41.0 °F 37.1 °F 39.2 °F 93% 29.87 in 2.5 mi WSW 5.8 mph - 0.05 in   Drizzle
5:55 PM 41.0 °F 35.2 °F 39.2 °F 93% 29.88 in 3.0 mi West 9.2 mph - N/A   Light Drizzle
6:15 PM 39.2 °F 32.5 °F 39.2 °F 100% 29.89 in 3.0 mi West 10.4 mph - N/A   Overcast
6:35 PM 39.2 °F 32.5 °F 39.2 °F 100% 29.89 in 3.0 mi WNW 10.4 mph - N/A   Overcast
6:55 PM 39.2 °F 33.0 °F 39.2 °F 100% 29.88 in 3.0 mi NW 9.2 mph - N/A   Overcast
7:15 PM 39.2 °F 32.0 °F 39.2 °F 100% 29.89 in 5.0 mi NW 11.5 mph - N/A   Drizzle
7:35 PM 39.2 °F 30.8 °F 39.2 °F 100% 29.91 in 7.0 mi NW 15.0 mph - N/A   Overcast
7:55 PM 39.2 °F 31.2 °F 37.4 °F 93% 29.92 in 3.0 mi NW 13.8 mph 18.4 mph N/A   Overcast
8:15 PM 37.4 °F 28.9 °F 37.4 °F 100% 29.92 in 4.0 mi NW 13.8 mph 18.4 mph 0.01 in   Overcast
8:35 PM 37.4 °F 28.2 °F 37.4 °F 100% 29.93 in 7.0 mi NW 16.1 mph 20.7 mph 0.01 in   Overcast
8:55 PM 37.4 °F 28.5 °F 37.4 °F 100% 29.94 in 7.0 mi NW 15.0 mph - N/A   Overcast
9:15 PM 37.4 °F 28.9 °F 37.4 °F 100% 29.94 in 7.0 mi NW 13.8 mph 18.4 mph N/A   Overcast
9:35 PM 37.4 °F 29.8 °F 37.4 °F 100% 29.95 in 7.0 mi NW 11.5 mph - N/A   Overcast
9:55 PM 37.4 °F 27.5 °F 35.6 °F 93% 29.95 in 7.0 mi NW 18.4 mph - N/A   Overcast
10:15 PM 37.4 °F 28.5 °F 35.6 °F 93% 29.96 in 7.0 mi NW 15.0 mph 24.2 mph N/A   Overcast
10:35 PM 35.6 °F 24.8 °F 35.6 °F 100% 29.97 in 10.0 mi NNW 19.6 mph - N/A   Overcast
10:55 PM 35.6 °F 25.9 °F 35.6 °F 100% 29.97 in 10.0 mi NW 16.1 mph 20.7 mph N/A   Overcast
11:15 PM 35.6 °F 26.2 °F 35.6 °F 100% 29.98 in 10.0 mi NW 15.0 mph - N/A   Overcast
11:35 PM 35.6 °F 25.5 °F 33.8 °F 93% 29.99 in 10.0 mi NW 17.3 mph 24.2 mph N/A   Overcast
11:55 PM 35.6 °F 25.5 °F 33.8 °F 93% 30.00 in 10.0 mi NNW 17.3 mph 24.2 mph N/A   Overcast